Regional Weather Roundup
Issued by NWS

Home | Current Version | Previous Version | Text Only | Print | Product List | Glossary Off
Versions: 1 2 3 4 5 6 7 8 9 10 11 12 13 14 15 16 17 18 19 20 21 22 23 24 25 26 27 28 29 30 31 32 33 34 35 36 37 38 39 40 41 42 43 44 45 46 47 48 49 50

000
ASUS43 KOAX 310602
RWRNE

WEATHER ROUNDUP FOR NEBRASKA
NATIONAL WEATHER SERVICE OMAHA NE
100 AM CDT THU JUL 31 2014

NOTES: SATELLITE DATA IS BEING USED TO AUGMENT CLOUD COVER ABOVE
       12000 FEET.
       "FAIR" INDICATES FEW OR NO CLOUDS BELOW 12,000 FEET WITH NO
       SIGNIFICANT WEATHER AND/OR OBSTRUCTIONS TO VISIBILITY.

  * THESE STATIONS DO NOT REPORT WEATHER SUCH AS RAIN...SNOW OR FOG.

NEZ001>004-019>022-054>056-310700-
NEBRASKA PANHANDLE

CITY           SKY/WX    TMP DP  RH WIND       PRES   REMARKS
SCOTTSBLUFF    MOCLDY    63  59  87 CALM      30.23S
6HR MIN TEMP:  62; 6HR MAX TEMP:  77;

ALLIANCE       CLOUDY    60  56  86 W6        30.21S
6HR MIN TEMP:  60; 6HR MAX TEMP:  79;

CHADRON        CLOUDY    65  52  62 N3        30.17S
6HR MIN TEMP:  63; 6HR MAX TEMP:  84;

KIMBALL        MOCLDY    58  57  97 SW7       30.28S
SIDNEY         PTCLDY    58  55  90 W7        30.28S
6HR MIN TEMP:  58; 6HR MAX TEMP:  69;

$$

NEZ057>060-069>072-079>082-310700-
SOUTHWEST NEBRASKA

CITY           SKY/WX    TMP DP  RH WIND       PRES   REMARKS
NORTH PLATTE   PTCLDY    59  55  87 CALM      30.18S
6HR MIN TEMP:  56; 6HR MAX TEMP:  78;

IMPERIAL       PTCLDY    61  57  87 W7        30.23S
6HR MIN TEMP:  60; 6HR MAX TEMP:  75;

LEXINGTON      PTCLDY    63  58  83 S6        30.18R
MCCOOK         PTCLDY    63  60  90 SW7       30.20S
6HR MIN TEMP:  63; 6HR MAX TEMP:  78;

$$

NEZ005>010-023>029-035>040-094-310700-
NORTH CENTRAL NEBRASKA

CITY           SKY/WX    TMP DP  RH WIND       PRES   REMARKS
VALENTINE      PTCLDY    66  52  60 SW9       30.10F
6HR MIN TEMP:  66; 6HR MAX TEMP:  84;

AINSWORTH      PTCLDY    64  53  68 S9        30.12F
BROKEN BOW     PTCLDY    57  54  89 CALM      30.16S
6HR MIN TEMP:  57; 6HR MAX TEMP:  79;

ORD            PTCLDY    60  57  89 CALM      30.13S
6HR MIN TEMP:  60; 6HR MAX TEMP:  80;

$$

NEZ041-046>049-061>064-073>077-083>087-310700-
SOUTH CENTRAL NEBRASKA

CITY           SKY/WX    TMP DP  RH WIND       PRES   REMARKS
GRAND ISLAND   PTCLDY    62  56  80 S7        30.16R
6HR MIN TEMP:  62; 6HR MAX TEMP:  78;

AURORA         PTCLDY    61  58  91 CALM      30.15S
HASTINGS       PTCLDY    64  54  69 SW3       30.16S
6HR MIN TEMP:  64; 6HR MAX TEMP:  77;

HEBRON         MOCLDY    58  53  85 CALM      30.15S
HOLDREGE       PTCLDY    63  55  74 CALM      30.17S
KEARNEY *      PTCLDY    63  54  72 S6        30.17R
YORK           PTCLDY    57  57 100 SW3       30.15S
$$

NEZ011>018-030>034-042>045-310700-
NORTHEAST NEBRASKA

CITY           SKY/WX    TMP DP  RH WIND       PRES   REMARKS
NORFOLK        CLEAR     60  54  80 CALM      30.13R
6HR MIN TEMP:  59; 6HR MAX TEMP:  80;

ALBION         CLEAR     59  55  86 CALM      30.15S
BLAIR          CLEAR     65  52  62 CALM      30.13R
COLUMBUS *     CLEAR     57  52  82 CALM      30.14R
FREMONT        CLEAR     63  57  81 CALM      30.13S
TEKAMAH        CLEAR     58  54  86 CALM      30.12R
6HR MIN TEMP:  58; 6HR MAX TEMP:  80;

WAYNE          CLEAR     56  55  94 S3        30.13F
$$

NEZ050>053-065>068-078-088>093-310700-
SOUTHEAST NEBRASKA

CITY           SKY/WX    TMP DP  RH WIND       PRES   REMARKS
LINCOLN        CLEAR     59  54  83 NE3       30.14R
6HR MIN TEMP:  57; 6HR MAX TEMP:  80;

OMAHA EPPLEY   CLEAR     63  58  83 CALM      30.12R
6HR MIN TEMP:  63; 6HR MAX TEMP:  80;

BEATRICE       PTCLDY    58  55  89 CALM      30.13S
FALLS CITY     PTCLDY    61  57  87 CALM      30.11S
6HR MIN TEMP:  60; 6HR MAX TEMP:  80;

NEBRASKA CITY  CLEAR     65  54  68 CALM      30.13S
PLATTSMOUTH    CLEAR     66  53  61 SE5       30.13R
$$

NEZ044-045-051>053-067-310700-
OMAHA AREA

CITY           SKY/WX    TMP DP  RH WIND       PRES   REMARKS
OMAHA EPPLEY   CLEAR     63  58  83 CALM      30.12R
6HR MIN TEMP:  63; 6HR MAX TEMP:  80;

BLAIR          CLEAR     65  52  62 CALM      30.13R
FREMONT        CLEAR     63  57  81 CALM      30.13S
OFFUTT AFB     CLEAR     55  55  99 CALM      30.11S
PLATTSMOUTH    CLEAR     66  53  61 SE5       30.13R
WAHOO          FAIR      60  55  85 CALM      30.13S
$$



USA.gov is the U.S. government's official web portal to all federal, state and local government web resources and services.